Theta_e
309 306 302 301 307 313 315 320 323 322 316 321 323 323 323 322 322 322 321 321 321 323 321 320 327 331 328 326 322 321 319 324 325 322 323 323 322 324 327 327 328 327 330 331 327
309 306 305 304 301 303 311 315 321 322 321 317 321 322 322 322 321 321 321 321 321 321 322 322 326 329 329 322 320 323 323 325 325 317 317 322 322 323 324 326 328 328 328 330 332
311 308 306 305 304 301 303 311 316 320 322 318 319 322 322 321 321 320 320 320 321 320 321 323 326 329 327 322 321 322 325 322 319 318 318 321 322 323 323 323 326 328 330 331 330
311 310 308 305 305 304 301 303 312 318 320 321 317 321 322 321 323 321 320 320 321 320 320 322 325 328 326 322 320 319 323 325 322 319 318 318 319 321 322 322 323 324 325 330 331
311 310 310 306 305 305 305 300 307 314 318 320 320 318 321 321 320 318 320 320 322 321 320 321 326 326 322 324 323 322 322 321 322 320 317 318 317 317 318 319 321 324 327 328 328
311 311 310 306 305 307 311 305 303 312 315 319 320 319 320 319 319 320 320 321 321 321 320 320 323 323 325 322 325 325 325 323 320 317 318 318 320 320 319 319 322 324 327 329 327
310 311 310 307 305 305 309 307 307 308 313 316 319 319 320 319 319 320 320 320 320 321 321 320 321 323 324 324 323 325 323 322 320 316 317 319 320 323 321 319 324 327 328 329 329
310 311 310 308 305 305 308 306 308 308 310 315 318 319 318 318 319 319 319 320 320 321 321 320 321 320 321 322 321 322 322 324 323 316 317 320 321 322 324 323 320 325 327 328 329
309 310 309 308 305 303 307 308 307 308 312 315 317 318 318 317 319 319 319 319 319 320 322 322 321 320 320 320 318 317 320 319 320 316 318 320 323 322 323 324 319 320 324 328 328
308 309 309 308 304 306 308 308 307 311 313 315 315 316 315 317 318 319 320 319 319 321 322 321 320 317 318 318 324 321 322 320 320 319 316 319 320 319 322 322 319 320 320 322 328
307 308 308 308 304 306 308 309 311 312 313 313 314 315 314 315 317 318 319 320 320 320 320 319 320 321 319 319 320 321 321 323 321 319 319 318 317 317 320 319 318 319 319 319 322
307 307 308 308 305 306 309 310 310 310 313 313 313 314 314 315 317 317 319 320 319 320 319 320 321 318 317 320 322 322 322 322 321 319 319 320 320 320 319 320 321 320 321 321 322
307 307 308 307 305 307 309 309 310 309 310 311 312 313 314 314 316 317 318 319 320 320 320 320 319 317 318 319 322 322 323 324 322 319 318 320 321 320 319 321 322 323 323 323 323
306 307 307 307 306 308 309 309 309 310 305 311 311 312 313 314 315 316 317 317 317 321 319 319 318 318 318 319 321 324 321 323 322 321 324 320 327 322 320 321 321 322 323 324 324
306 307 308 305 306 307 308 310 309 309 310 306 311 311 313 314 313 315 316 317 317 317 320 320 319 318 319 318 318 322 321 322 322 321 323 323 324 321 320 321 320 321 322 322 324
306 307 307 305 305 305 308 310 309 309 308 307 312 312 313 313 314 315 316 317 317 317 316 318 318 317 317 317 317 317 318 318 318 321 326 325 324 324 322 321 321 321 322 324 324
306 307 306 305 305 305 308 311 311 308 302 310 312 313 312 312 313 313 316 317 316 320 320 317 318 318 317 318 318 319 322 325 327 325 325 321 322 324 320 318 319 319 321 322 322
307 307 305 305 304 304 309 308 307 298 298 309 311 311 313 312 311 313 313 314 314 314 316 319 319 318 318 317 319 321 322 321 323 323 321 316 322 322 320 320 321 321 321 321 321
306 305 305 305 304 305 307 309 304 300 306 309 309 312 312 312 312 313 312 312 313 314 316 317 320 317 317 317 318 318 323 318 315 301 314 316 315 315 315 318 317 318 319 319 317
305 305 305 305 305 306 305 304 298 305 306 306 303 305 308 313 313 313 312 310 315 316 314 316 320 317 317 317 318 318 318 321 318 315 317 315 316 317 316 316 315 314 314 317 316
305 305 305 305 306 306 305 303 303 305 306 305 306 307 307 311 313 314 313 310 310 313 316 316 318 315 315 319 320 318 320 319 318 316 317 315 315 312 314 312 310 309 311 312 312
303 303 305 305 305 301 303 301 304 305 304 303 303 304 307 307 308 313 314 312 310 313 318 317 317 317 317 312 312 317 320 319 320 318 315 315 315 310 307 306 309 308 310 309 310
302 303 305 305 301 298 301 302 302 304 303 302 302 305 305 307 307 309 309 311 312 312 316 316 312 319 316 314 313 319 317 319 315 314 317 317 315 309 306 306 308 310 311 312 313
301 301 300 301 300 300 299 301 301 302 302 303 303 304 304 305 305 305 306 306 311 312 313 314 313 315 319 318 317 319 318 318 319 317 317 317 314 311 306 307 307 310 312 314 314
300 298 300 302 296 299 299 300 301 300 302 304 303 303 303 301 305 306 306 306 308 311 313 315 314 314 315 315 317 318 318 317 319 318 317 316 315 313 310 307 309 310 310 314 313
300 298 300 294 299 299 300 297 301 301 302 302 301 303 303 303 303 301 306 309 310 313 316 315 314 315 316 315 316 318 316 317 317 318 317 316 315 312 315 312 310 311 314 314 314
299 298 299 299 296 298 299 298 300 300 301 303 303 303 303 303 303 302 304 305 306 307 308 316 313 314 318 314 316 318 317 317 317 317 317 318 316 312 311 311 313 314 315 314 313
Wind_Speed
30 30 32 34 34 32 28 27 24 23 25 25 24 22 20 17 16 15 15 11 15 6 5 5 5 4 3 6 1 1 3 3 4 6 2 7 3 6 7 13 6 4 5 3 17
31 31 29 30 32 35 32 28 27 24 23 25 23 22 20 17 16 19 15 14 14 13 7 5 4 4 4 5 1 3 0 4 6 4 4 1 3 7 5 11 5 6 3 8 31
35 31 29 29 29 32 34 31 28 28 23 23 25 21 18 15 11 23 22 20 15 13 14 7 7 7 3 7 6 1 3 5 0 6 6 1 5 3 6 3 10 13 14 16 26
41 35 32 30 29 29 31 33 31 27 26 23 24 23 18 16 7 1 15 23 20 16 15 13 7 9 3 5 8 4 13 16 10 4 3 1 3 2 4 2 5 11 11 18 23
41 39 34 32 29 28 27 30 33 29 26 24 23 25 23 19 13 5 1 20 20 19 18 17 15 9 5 4 6 3 5 10 18 9 2 3 6 0 7 5 4 11 18 16 21
42 38 35 32 30 27 25 26 30 30 27 25 25 27 29 18 18 12 2 12 18 22 19 18 12 12 9 7 8 15 11 15 8 10 6 5 2 2 4 3 9 12 20 17 17
42 39 35 32 30 30 27 24 26 30 28 26 26 28 29 28 7 18 19 3 10 21 21 20 12 12 6 3 12 16 6 9 9 10 4 7 6 5 3 4 12 16 16 15 16
43 42 37 33 31 31 27 24 24 26 27 26 26 29 14 33 17 18 21 16 9 15 18 17 15 7 4 1 2 5 2 10 10 10 7 8 9 9 19 9 9 17 17 16 17
43 42 39 34 31 30 27 24 24 25 25 24 26 25 11 23 30 20 18 16 17 16 19 13 14 5 3 3 1 5 4 5 5 19 5 8 4 16 27 18 17 12 20 22 20
46 41 40 35 31 29 27 23 22 23 24 22 21 11 13 24 33 26 21 17 21 19 15 11 8 4 2 4 11 5 6 6 14 8 8 8 10 7 9 19 20 15 12 19 28
46 43 40 35 32 31 29 29 23 14 36 18 18 4 19 18 25 33 26 21 24 21 7 10 6 16 15 8 3 3 5 9 4 9 9 10 8 11 23 11 19 20 19 16 21
48 44 41 36 33 33 33 30 35 11 16 22 6 20 11 19 14 28 32 21 14 13 11 5 14 14 8 8 8 9 5 6 6 2 7 6 15 12 13 18 26 24 22 22 22
48 45 42 37 34 35 38 35 30 22 7 22 16 19 19 18 12 28 33 20 6 18 18 16 9 14 12 9 12 12 9 5 5 1 1 2 8 7 7 22 29 31 32 34 36
50 46 43 39 36 38 36 37 33 21 4 5 16 9 27 14 5 18 38 20 5 6 17 15 14 20 14 18 11 14 9 9 3 4 5 4 7 10 10 18 19 29 35 40 37
51 49 46 46 35 43 41 33 35 21 6 8 10 13 23 16 18 14 30 23 12 13 5 6 16 19 21 24 15 6 9 9 4 2 2 4 4 6 8 9 9 22 36 38 42
51 51 47 42 32 42 38 35 36 6 7 4 11 14 16 16 8 20 22 24 7 11 14 15 4 17 17 15 14 7 6 5 4 2 8 8 8 5 7 7 11 23 29 35 37
53 51 52 49 41 44 42 33 10 5 2 8 10 15 20 14 13 8 14 15 12 7 18 18 21 3 15 17 4 7 10 3 7 5 10 13 9 16 7 9 12 14 23 15 15
52 50 50 46 40 45 45 5 4 3 4 3 7 17 17 14 18 12 13 13 21 11 2 11 11 22 13 18 13 21 17 5 9 6 8 3 8 5 18 34 27 28 28 23 18
50 46 48 39 42 46 34 11 7 6 8 9 5 12 13 10 8 15 19 18 12 22 14 6 5 15 10 6 15 9 13 10 4 3 3 5 6 8 7 12 12 18 17 16 14
50 44 41 40 44 46 15 13 4 4 8 7 6 4 7 13 12 17 17 11 14 17 24 8 3 6 7 11 3 13 18 9 3 3 4 5 5 5 6 14 7 6 16 17 10
42 22 40 42 48 34 13 9 4 8 9 4 4 5 5 6 10 10 7 7 19 9 19 12 7 3 1 8 16 5 14 5 7 4 5 2 6 7 12 8 9 8 7 7 5
17 4 47 50 7 4 9 8 7 6 6 4 4 5 5 6 4 8 11 12 25 21 19 15 5 6 15 1 5 9 13 17 10 10 4 2 5 6 9 9 16 14 13 14 11
13 12 33 38 5 4 5 4 4 5 6 5 4 3 4 5 3 7 7 8 16 19 18 12 6 9 5 4 3 16 6 19 3 4 9 5 5 1 3 7 15 22 16 14 9
14 4 7 13 4 8 6 7 6 11 6 8 5 6 4 4 5 5 4 3 8 27 31 18 6 3 10 16 7 25 24 26 23 9 13 17 10 6 8 8 11 18 18 12 7
7 3 7 10 3 8 6 7 11 6 5 9 2 6 7 4 4 8 6 5 10 19 23 14 9 13 16 18 19 15 22 19 21 25 15 20 13 10 10 10 19 23 18 11 7
8 8 8 7 18 6 10 6 14 8 8 6 6 10 9 10 13 4 7 4 6 9 18 12 5 19 19 12 19 19 21 20 19 23 15 19 16 8 15 8 13 17 16 15 8
14 20 15 12 7 6 6 7 9 8 8 10 10 6 14 21 23 20 17 16 11 7 10 13 9 11 12 15 16 14 25 27 26 22 28 23 25 8 8 13 20 17 13 9 6
Wind_Direction
230 230 229 231 231 226 222 220 216 213 212 214 217 217 215 215 220 219 216 221 220 196 204 223 204 208 186 179 348 3 51 326 314 341 171 148 98 71 102 123 97 115 136 177 155
228 229 227 227 228 228 224 220 218 215 210 208 212 214 212 214 224 233 226 218 220 209 205 176 174 190 125 130 29 108 126 183 276 308 39 112 98 133 125 134 96 112 127 142 160
227 225 228 224 226 225 222 219 217 215 211 206 206 209 206 203 226 248 230 225 217 208 203 164 178 184 133 140 140 65 204 272 294 359 24 325 105 124 136 218 188 184 171 165 170
227 227 229 225 222 224 222 215 215 213 212 207 204 204 199 190 197 216 213 222 224 208 194 167 178 145 151 173 164 198 218 259 285 331 273 116 44 118 205 212 179 219 198 176 179
224 222 223 222 222 221 220 215 211 210 209 206 203 197 189 192 196 111 294 204 204 201 191 180 173 146 172 198 138 139 280 254 264 259 294 126 96 67 297 286 194 190 193 188 190
221 216 215 213 215 217 213 214 208 207 204 204 202 193 194 209 212 217 28 171 195 194 188 179 197 188 177 189 199 191 221 297 251 212 215 184 146 105 48 152 170 183 191 195 199
217 212 210 210 208 212 213 213 205 204 200 200 198 197 198 206 191 215 222 171 196 196 193 182 170 212 215 202 225 210 187 247 263 228 250 222 293 227 174 170 165 179 192 207 213
212 210 208 209 205 206 205 204 202 196 196 194 194 196 214 212 205 201 226 228 216 195 196 196 209 274 232 241 146 156 183 219 232 215 237 178 249 253 250 233 207 196 202 214 222
207 208 207 206 203 200 197 194 193 188 186 188 191 197 222 211 199 196 214 210 200 195 178 196 208 195 165 111 72 218 183 181 270 201 192 181 233 235 254 239 220 206 209 213 220
204 204 203 203 197 191 186 183 177 179 178 182 196 188 208 200 203 194 200 206 192 186 189 179 171 147 133 155 203 202 192 202 208 204 187 206 242 246 273 216 217 225 211 213 219
200 199 199 198 192 184 175 161 158 172 181 185 194 121 174 184 189 200 194 192 194 184 173 183 179 201 198 196 274 194 185 215 227 235 184 215 229 232 243 219 215 219 218 219 220
198 194 193 194 187 181 179 175 174 182 176 189 160 186 146 176 173 199 191 185 187 191 159 162 220 204 195 201 200 259 246 236 241 316 170 219 242 238 229 239 240 230 231 236 242
196 189 189 190 181 181 187 183 164 153 138 206 208 192 200 188 175 195 189 194 199 180 185 203 206 192 202 199 206 225 228 223 195 217 7 31 274 256 241 242 245 248 250 249 253
192 187 185 182 178 183 189 183 173 151 99 177 204 220 188 178 218 203 198 189 214 222 193 221 203 184 199 213 193 220 179 234 150 149 231 163 271 237 221 238 238 247 249 248 244
186 184 180 182 179 184 183 169 173 164 185 199 177 189 179 180 141 196 196 194 183 192 185 215 189 185 198 205 198 215 171 194 175 128 50 204 263 273 216 231 240 238 241 240 239
182 180 175 179 181 184 176 169 171 159 217 155 144 165 161 186 171 159 181 201 212 219 220 228 294 191 200 194 193 150 98 59 40 99 234 193 207 205 215 211 245 244 247 248 245
180 177 175 177 180 179 171 167 171 172 263 161 167 167 175 182 185 153 178 192 196 202 207 220 219 295 179 183 149 157 153 190 217 207 252 175 205 248 240 243 233 240 250 248 259
175 172 176 174 180 175 171 162 130 190 176 145 145 164 183 156 202 181 173 203 206 190 200 209 209 196 225 190 180 191 178 163 200 195 218 113 229 237 216 233 244 252 257 272 263
165 169 171 168 174 176 167 193 187 181 145 127 103 168 186 183 156 177 206 211 200 203 211 200 234 188 213 195 165 181 200 174 95 41 94 214 285 299 245 247 240 252 256 260 262
156 162 170 170 174 169 167 196 160 122 121 144 129 154 160 190 188 185 185 183 207 213 203 187 254 224 200 180 176 194 184 182 191 176 240 261 251 228 224 242 242 271 256 257 252
145 151 172 171 170 161 187 184 161 131 117 101 126 147 150 159 199 183 204 200 189 179 201 214 204 179 273 217 173 161 188 203 174 174 189 218 255 221 208 199 166 168 143 160 192
133 123 166 170 153 145 168 164 133 139 85 89 87 104 145 165 143 207 220 212 191 180 195 214 192 195 213 288 234 208 189 184 186 208 207 155 274 310 166 167 158 153 134 125 113
110 106 162 168 148 122 132 149 136 137 142 129 125 142 183 139 178 201 204 261 227 193 176 156 235 178 201 273 1 206 206 200 111 112 203 165 260 340 61 138 169 152 150 141 135
120 124 110 164 115 147 131 184 168 185 141 128 137 135 126 166 212 198 175 289 248 209 204 174 202 152 219 213 179 192 195 197 200 188 208 220 210 219 223 205 183 180 170 174 177
122 126 142 176 207 148 128 163 178 163 141 135 144 174 154 158 210 226 233 256 250 260 202 194 209 207 224 277 188 198 200 196 204 215 195 214 211 210 215 211 202 195 191 195 206
116 140 133 99 131 101 171 196 184 186 149 196 145 183 188 219 215 180 192 173 246 236 201 190 247 196 211 220 196 197 207 209 220 230 250 247 239 210 240 202 189 191 197 217 235
113 129 123 149 138 142 199 174 183 160 224 161 171 180 213 225 234 249 253 246 215 225 278 204 183 177 204 199 191 193 196 194 212 221 219 224 224 180 200 187 191 198 217 244 270